Time,TemperatureF,DewpointF,PressureIn,WindDirection,WindDirectionDegrees,WindSpeedMPH,WindSpeedGustMPH,Humidity,HourlyPrecipIn,Conditions,Clouds,dailyrainin,SoftwareType,DateUTC
2013-05-17 00:03:00,54.0,41.0,30.05,NW,313,0.0,4.0,62,0.00,,,0.00,,2013-05-17 04:03:00,
2013-05-17 00:13:00,54.0,41.0,30.05,NW,313,0.0,4.0,62,0.00,,,0.00,,2013-05-17 04:13:00,
2013-05-17 00:23:00,53.0,41.0,30.06,WNW,287,0.0,1.0,63,0.00,,,0.00,,2013-05-17 04:23:00,
2013-05-17 00:34:00,53.0,41.0,30.06,WNW,293,0.0,3.0,64,0.00,,,0.00,,2013-05-17 04:34:00,
2013-05-17 00:43:00,53.0,41.0,30.06,WNW,293,0.0,3.0,64,0.00,,,0.00,,2013-05-17 04:43:00,
2013-05-17 00:53:00,52.0,40.0,30.07,NW,311,0.0,3.0,64,0.00,,,0.00,,2013-05-17 04:53:00,
2013-05-17 01:03:00,52.0,41.0,30.07,NW,309,0.0,3.0,65,0.00,,,0.00,,2013-05-17 05:03:00,
2013-05-17 01:14:00,52.0,41.0,30.07,NW,309,0.0,3.0,65,0.00,,,0.00,,2013-05-17 05:14:00,
2013-05-17 01:22:00,51.0,40.0,30.08,NW,309,0.0,0.0,66,0.00,,,0.00,,2013-05-17 05:22:00,
2013-05-17 01:32:00,51.0,40.0,30.09,North,360,0.0,3.0,67,0.00,,,0.00,,2013-05-17 05:32:00,
2013-05-17 01:43:00,51.0,40.0,30.09,North,360,0.0,3.0,67,0.00,,,0.00,,2013-05-17 05:43:00,
2013-05-17 01:52:00,50.0,40.0,30.09,North,5,0.0,2.0,68,0.00,,,0.00,,2013-05-17 05:52:00,
2013-05-17 02:02:00,49.0,40.0,30.09,North,5,0.0,3.0,70,0.00,,,0.00,,2013-05-17 06:02:00,
2013-05-17 02:11:00,49.0,40.0,30.09,North,5,0.0,3.0,70,0.00,,,0.00,,2013-05-17 06:11:00,
2013-05-17 02:22:00,49.0,40.0,30.09,North,5,0.0,0.0,71,0.00,,,0.00,,2013-05-17 06:22:00,
2013-05-17 02:32:00,48.0,40.0,30.09,North,5,0.0,0.0,73,0.00,,,0.00,,2013-05-17 06:32:00,
2013-05-17 02:42:00,48.0,40.0,30.09,North,5,0.0,0.0,73,0.00,,,0.00,,2013-05-17 06:42:00,
2013-05-17 02:52:00,48.0,40.0,30.09,North,5,0.0,0.0,73,0.00,,,0.00,,2013-05-17 06:52:00,
2013-05-17 03:03:00,48.0,40.0,30.10,North,5,0.0,0.0,74,0.00,,,0.00,,2013-05-17 07:03:00,
2013-05-17 03:11:00,48.0,40.0,30.10,North,5,0.0,0.0,74,0.00,,,0.00,,2013-05-17 07:11:00,
2013-05-17 03:21:00,48.0,40.0,30.11,North,5,0.0,0.0,75,0.00,,,0.00,,2013-05-17 07:21:00,
2013-05-17 03:32:00,48.0,40.0,30.11,North,5,0.0,0.0,75,0.00,,,0.00,,2013-05-17 07:32:00,
2013-05-17 03:43:00,48.0,40.0,30.11,North,5,0.0,0.0,75,0.00,,,0.00,,2013-05-17 07:43:00,
2013-05-17 03:53:00,48.0,40.0,30.11,North,5,0.0,0.0,75,0.00,,,0.00,,2013-05-17 07:53:00,
2013-05-17 04:02:00,47.0,39.0,30.12,North,5,0.0,0.0,75,0.00,,,0.00,,2013-05-17 08:02:00,
2013-05-17 04:12:00,47.0,39.0,30.12,North,5,0.0,0.0,75,0.00,,,0.00,,2013-05-17 08:12:00,
2013-05-17 04:23:00,47.0,40.0,30.13,North,5,0.0,2.0,76,0.00,,,0.00,,2013-05-17 08:23:00,
2013-05-17 04:34:00,47.0,38.0,30.13,North,5,0.0,0.0,72,0.00,,,0.00,,2013-05-17 08:34:00,
2013-05-17 04:42:00,47.0,38.0,30.13,North,5,0.0,0.0,72,0.00,,,0.00,,2013-05-17 08:42:00,
2013-05-17 04:52:00,47.0,38.0,30.14,North,5,0.0,0.0,70,0.00,,,0.00,,2013-05-17 08:52:00,
2013-05-17 05:02:00,48.0,39.0,30.14,North,5,0.0,0.0,70,0.00,,,0.00,,2013-05-17 09:02:00,
2013-05-17 05:12:00,48.0,39.0,30.14,North,5,0.0,0.0,70,0.00,,,0.00,,2013-05-17 09:12:00,
2013-05-17 05:22:00,47.0,38.0,30.15,North,5,0.0,0.0,71,0.00,,,0.00,,2013-05-17 09:22:00,
2013-05-17 05:33:00,47.0,38.0,30.15,North,360,0.0,3.0,72,0.00,,,0.00,,2013-05-17 09:33:00,
2013-05-17 05:42:00,47.0,38.0,30.15,North,360,0.0,3.0,72,0.00,,,0.00,,2013-05-17 09:42:00,
2013-05-17 05:53:00,46.0,38.0,30.16,North,360,0.0,0.0,74,0.00,,,0.00,,2013-05-17 09:53:00,
2013-05-17 06:03:00,46.0,39.0,30.17,North,360,0.0,1.0,75,0.00,,,0.00,,2013-05-17 10:03:00,
2013-05-17 06:12:00,46.0,39.0,30.17,North,360,0.0,1.0,75,0.00,,,0.00,,2013-05-17 10:12:00,
2013-05-17 06:23:00,46.0,39.0,30.17,North,360,0.0,0.0,76,0.00,,,0.00,,2013-05-17 10:23:00,
2013-05-17 06:33:00,46.0,39.0,30.18,North,360,0.0,0.0,76,0.00,,,0.00,,2013-05-17 10:33:00,
2013-05-17 06:42:00,46.0,39.0,30.18,North,360,0.0,0.0,76,0.00,,,0.00,,2013-05-17 10:42:00,
2013-05-17 06:53:00,46.0,39.0,30.18,North,360,0.0,0.0,77,0.00,,,0.00,,2013-05-17 10:53:00,
2013-05-17 07:02:00,47.0,40.0,30.19,North,360,0.0,0.0,77,0.00,,,0.00,,2013-05-17 11:02:00,
2013-05-17 07:12:00,47.0,40.0,30.19,North,360,0.0,0.0,77,0.00,,,0.00,,2013-05-17 11:12:00,
2013-05-17 07:23:00,48.0,40.0,30.20,North,360,0.0,0.0,73,0.00,,,0.00,,2013-05-17 11:23:00,
2013-05-17 07:34:00,50.0,40.0,30.20,North,360,0.0,0.0,68,0.00,,,0.00,,2013-05-17 11:34:00,
2013-05-17 07:42:00,50.0,40.0,30.20,North,360,0.0,0.0,68,0.00,,,0.00,,2013-05-17 11:42:00,
2013-05-17 07:53:00,51.0,40.0,30.21,North,360,0.0,2.0,66,0.00,,,0.00,,2013-05-17 11:53:00,
2013-05-17 08:03:00,51.0,40.0,30.21,NNE,17,0.0,1.0,66,0.00,,,0.00,,2013-05-17 12:03:00,
2013-05-17 08:12:00,51.0,40.0,30.21,NNE,17,0.0,1.0,66,0.00,,,0.00,,2013-05-17 12:12:00,
2013-05-17 08:23:00,52.0,40.0,30.21,North,11,0.0,2.0,64,0.00,,,0.00,,2013-05-17 12:23:00,
2013-05-17 08:33:00,52.0,41.0,30.22,North,11,0.0,2.0,66,0.00,,,0.00,,2013-05-17 12:33:00,
2013-05-17 08:43:00,52.0,41.0,30.22,North,11,0.0,2.0,66,0.00,,,0.00,,2013-05-17 12:43:00,
2013-05-17 08:53:00,52.0,41.0,30.22,North,10,0.0,2.0,65,0.00,,,0.00,,2013-05-17 12:53:00,
2013-05-17 09:04:00,53.0,41.0,30.23,North,10,0.0,1.0,64,0.00,,,0.00,,2013-05-17 13:04:00,
2013-05-17 09:12:00,53.0,41.0,30.23,North,10,0.0,1.0,64,0.00,,,0.00,,2013-05-17 13:12:00,
2013-05-17 09:23:00,54.0,41.0,30.24,North,9,0.0,2.0,62,0.00,,,0.00,,2013-05-17 13:23:00,
2013-05-17 09:33:00,55.0,42.0,30.24,ESE,112,1.0,5.0,61,0.00,,,0.00,,2013-05-17 13:33:00,
2013-05-17 09:42:00,55.0,42.0,30.24,ESE,112,1.0,5.0,61,0.00,,,0.00,,2013-05-17 13:42:00,
2013-05-17 09:52:00,54.0,41.0,30.24,ESE,111,1.0,4.0,61,0.00,,,0.00,,2013-05-17 13:52:00,
2013-05-17 10:02:00,54.0,41.0,30.24,ESE,105,2.0,5.0,61,0.00,,,0.00,,2013-05-17 14:02:00,
2013-05-17 10:13:00,54.0,41.0,30.24,ESE,105,2.0,5.0,61,0.00,,,0.00,,2013-05-17 14:13:00,
2013-05-17 10:22:00,56.0,41.0,30.24,East,98,1.0,6.0,58,0.00,,,0.00,,2013-05-17 14:22:00,
2013-05-17 10:34:00,57.0,41.0,30.25,NE,36,0.0,3.0,56,0.00,,,0.00,,2013-05-17 14:34:00,
2013-05-17 10:43:00,57.0,41.0,30.25,NE,36,0.0,3.0,56,0.00,,,0.00,,2013-05-17 14:43:00,
2013-05-17 10:53:00,58.0,41.0,30.26,ENE,59,0.0,2.0,54,0.00,,,0.00,,2013-05-17 14:53:00,
2013-05-17 11:03:00,59.0,42.0,30.26,NW,321,0.0,3.0,54,0.00,,,0.00,,2013-05-17 15:03:00,
2013-05-17 11:14:00,59.0,42.0,30.26,NW,321,0.0,3.0,54,0.00,,,0.00,,2013-05-17 15:14:00,
2013-05-17 11:25:00,59.0,41.0,30.27,NW,309,1.0,3.0,52,0.00,,,0.00,,2013-05-17 15:25:00,
2013-05-17 11:37:00,59.0,41.0,30.27,NW,319,0.0,1.0,51,0.00,,,0.00,,2013-05-17 15:37:00,
2013-05-17 11:47:00,59.0,41.0,30.27,NW,319,0.0,1.0,51,0.00,,,0.00,,2013-05-17 15:47:00,
2013-05-17 11:56:00,60.0,42.0,30.27,WNW,303,1.0,4.0,51,0.00,,,0.00,,2013-05-17 15:56:00,
2013-05-17 12:07:00,60.0,41.0,30.27,WSW,246,1.0,3.0,50,0.00,,,0.00,,2013-05-17 16:07:00,
2013-05-17 12:14:00,60.0,41.0,30.27,WSW,246,1.0,3.0,50,0.00,,,0.00,,2013-05-17 16:14:00,
2013-05-17 12:26:00,60.0,41.0,30.27,ESE,106,0.0,3.0,49,0.00,,,0.00,,2013-05-17 16:26:00,
2013-05-17 12:37:00,62.0,41.0,30.26,WNW,300,0.0,4.0,46,0.00,,,0.00,,2013-05-17 16:37:00,
2013-05-17 12:49:00,62.0,41.0,30.26,WNW,300,0.0,4.0,46,0.00,,,0.00,,2013-05-17 16:49:00,
2013-05-17 12:56:00,63.0,41.0,30.26,ESE,112,1.0,4.0,44,0.00,,,0.00,,2013-05-17 16:56:00,
2013-05-17 13:08:00,62.0,39.0,30.26,NE,55,0.0,5.0,43,0.00,,,0.00,,2013-05-17 17:08:00,
2013-05-17 13:19:00,62.0,39.0,30.26,NE,55,0.0,5.0,43,0.00,,,0.00,,2013-05-17 17:19:00,
2013-05-17 13:30:00,62.0,38.0,30.26,ESE,109,1.0,3.0,41,0.00,,,0.00,,2013-05-17 17:30:00,
2013-05-17 13:40:00,62.0,-99.9,30.26,NE,40,0.0,3.0,42,0.00,,,0.00,,2013-05-17 17:40:00,
2013-05-17 13:49:00,62.0,39.0,30.26,NE,40,0.0,3.0,42,0.00,,,0.00,,2013-05-17 17:49:00,
2013-05-17 14:00:00,63.0,40.0,30.26,NW,325,0.0,2.0,43,0.00,,,0.00,,2013-05-17 18:00:00,
2013-05-17 14:09:00,62.0,40.0,30.26,North,5,0.0,4.0,45,0.00,,,0.00,,2013-05-17 18:09:00,
2013-05-17 14:20:00,62.0,40.0,30.26,North,5,0.0,4.0,45,0.00,,,0.00,,2013-05-17 18:20:00,
2013-05-17 14:30:00,62.0,39.0,30.26,NNE,26,2.0,5.0,43,0.00,,,0.00,,2013-05-17 18:30:00,
2013-05-17 14:40:00,62.0,-99.9,30.26,NE,41,0.0,3.0,46,0.00,,,0.00,,2013-05-17 18:40:00,
2013-05-17 14:50:00,-999.0,-99.9,30.26,NE,41,0.0,3.0,46,0.00,,,0.00,,2013-05-17 18:50:00,
2013-05-17 15:00:00,61.0,40.0,30.26,NNE,26,0.0,3.0,45,0.00,,,0.00,,2013-05-17 19:00:00,
2013-05-17 15:10:00,62.0,39.0,30.26,NNE,19,0.0,4.0,43,0.00,,,0.00,,2013-05-17 19:10:00,
2013-05-17 15:20:00,62.0,39.0,30.26,NNE,19,0.0,4.0,43,0.00,,,0.00,,2013-05-17 19:20:00,
2013-05-17 15:30:00,62.0,39.0,30.26,NNE,13,1.0,4.0,42,0.00,,,0.00,,2013-05-17 19:30:00,
2013-05-17 15:40:00,62.0,37.0,30.26,North,5,2.0,5.0,40,0.00,,,0.00,,2013-05-17 19:40:00,
2013-05-17 15:51:00,62.0,37.0,30.26,North,5,2.0,5.0,40,0.00,,,0.00,,2013-05-17 19:51:00,
2013-05-17 16:00:00,61.0,-99.9,30.26,NNE,23,1.0,5.0,43,0.00,,,0.00,,2013-05-17 20:00:00,
2013-05-17 16:09:00,61.0,38.0,30.26,NNE,30,1.0,5.0,42,0.00,,,0.00,,2013-05-17 20:09:00,
2013-05-17 16:20:00,61.0,38.0,30.26,NNE,30,1.0,5.0,42,0.00,,,0.00,,2013-05-17 20:20:00,
2013-05-17 16:30:00,61.0,38.0,30.25,NNE,24,0.0,3.0,42,0.00,,,0.00,,2013-05-17 20:30:00,
2013-05-17 16:40:00,62.0,37.0,30.26,NE,43,1.0,3.0,39,0.00,,,0.00,,2013-05-17 20:40:00,
2013-05-17 16:50:00,62.0,37.0,30.26,NE,43,1.0,3.0,39,0.00,,,0.00,,2013-05-17 20:50:00,
2013-05-17 16:58:00,63.0,38.0,30.25,NE,39,0.0,2.0,40,0.00,,,0.00,,2013-05-17 20:58:00,
2013-05-17 17:07:00,63.0,38.0,30.25,ESE,115,2.0,4.0,39,0.00,,,0.00,,2013-05-17 21:07:00,
2013-05-17 17:17:00,63.0,38.0,30.25,ESE,115,2.0,4.0,39,0.00,,,0.00,,2013-05-17 21:17:00,
2013-05-17 17:26:00,63.0,37.0,30.25,ENE,67,0.0,3.0,38,0.00,,,0.00,,2013-05-17 21:26:00,
2013-05-17 17:39:00,64.0,37.0,30.24,ENE,61,0.0,3.0,37,0.00,,,0.00,,2013-05-17 21:39:00,
2013-05-17 17:49:00,64.0,37.0,30.24,ENE,61,0.0,3.0,37,0.00,,,0.00,,2013-05-17 21:49:00,
2013-05-17 17:57:00,64.0,37.0,30.25,ENE,59,0.0,2.0,36,0.00,,,0.00,,2013-05-17 21:57:00,
2013-05-17 18:07:00,64.0,37.0,30.25,NE,46,0.0,2.0,36,0.00,,,0.00,,2013-05-17 22:07:00,
2013-05-17 18:17:00,64.0,37.0,30.25,NE,46,0.0,2.0,36,0.00,,,0.00,,2013-05-17 22:17:00,
2013-05-17 18:28:00,64.0,36.0,30.25,NE,49,0.0,1.0,35,0.00,,,0.00,,2013-05-17 22:28:00,
2013-05-17 18:38:00,64.0,35.0,30.24,NE,49,0.0,1.0,34,0.00,,,0.00,,2013-05-17 22:38:00,
2013-05-17 18:47:00,64.0,35.0,30.24,NE,49,0.0,1.0,34,0.00,,,0.00,,2013-05-17 22:47:00,
2013-05-17 18:54:00,64.0,36.0,30.24,NE,49,0.0,2.0,35,0.00,,,0.00,,2013-05-17 22:54:00,
2013-05-17 19:04:00,63.0,33.0,30.24,North,355,0.0,2.0,33,0.00,,,0.00,,2013-05-17 23:04:00,
2013-05-17 19:13:00,63.0,33.0,30.24,North,355,0.0,2.0,33,0.00,,,0.00,,2013-05-17 23:13:00,
2013-05-17 19:23:00,63.0,36.0,30.24,North,355,0.0,0.0,36,0.00,,,0.00,,2013-05-17 23:23:00,
2013-05-17 19:37:00,62.0,36.0,30.24,North,355,0.0,0.0,38,0.00,,,0.00,,2013-05-17 23:37:00,
2013-05-17 19:47:00,62.0,36.0,30.24,North,355,0.0,0.0,38,0.00,,,0.00,,2013-05-17 23:47:00,
2013-05-17 19:54:00,62.0,38.0,30.24,North,355,0.0,0.0,41,0.00,,,0.00,,2013-05-17 23:54:00,
2013-05-17 20:02:00,61.0,38.0,30.25,North,355,0.0,0.0,42,0.00,,,0.00,,2013-05-18 00:02:00,
2013-05-17 20:14:00,61.0,38.0,30.25,North,355,0.0,0.0,42,0.00,,,0.00,,2013-05-18 00:14:00,
2013-05-17 20:22:00,61.0,39.0,30.25,North,355,0.0,0.0,44,0.00,,,0.00,,2013-05-18 00:22:00,
2013-05-17 20:34:00,60.0,39.0,30.25,North,355,0.0,0.0,46,0.00,,,0.00,,2013-05-18 00:34:00,
2013-05-17 20:45:00,60.0,39.0,30.25,North,355,0.0,0.0,46,0.00,,,0.00,,2013-05-18 00:45:00,
2013-05-17 20:54:00,60.0,40.0,30.25,North,355,0.0,0.0,48,0.00,,,0.00,,2013-05-18 00:54:00,
2013-05-17 21:03:00,59.0,40.0,30.25,North,355,0.0,0.0,50,0.00,,,0.00,,2013-05-18 01:03:00,
2013-05-17 21:13:00,59.0,40.0,30.25,North,355,0.0,0.0,50,0.00,,,0.00,,2013-05-18 01:13:00,
2013-05-17 21:24:00,58.0,40.0,30.26,North,355,0.0,0.0,52,0.00,,,0.00,,2013-05-18 01:24:00,
2013-05-17 21:32:00,58.0,41.0,30.27,North,355,0.0,0.0,54,0.00,,,0.00,,2013-05-18 01:32:00,
2013-05-17 21:43:00,58.0,41.0,30.27,North,355,0.0,0.0,54,0.00,,,0.00,,2013-05-18 01:43:00,
2013-05-17 21:52:00,57.0,42.0,30.27,North,355,0.0,0.0,57,0.00,,,0.00,,2013-05-18 01:52:00,
2013-05-17 22:03:00,56.0,42.0,30.27,North,355,0.0,0.0,60,0.00,,,0.00,,2013-05-18 02:03:00,
2013-05-17 22:12:00,56.0,42.0,30.27,North,355,0.0,0.0,60,0.00,,,0.00,,2013-05-18 02:12:00,
2013-05-17 22:23:00,56.0,43.0,30.27,North,355,0.0,0.0,62,0.00,,,0.00,,2013-05-18 02:23:00,
2013-05-17 22:32:00,55.0,43.0,30.28,North,355,0.0,0.0,64,0.00,,,0.00,,2013-05-18 02:32:00,
2013-05-17 22:42:00,55.0,43.0,30.28,North,355,0.0,0.0,64,0.00,,,0.00,,2013-05-18 02:42:00,
2013-05-17 22:53:00,55.0,43.0,30.28,North,355,0.0,0.0,65,0.00,,,0.00,,2013-05-18 02:53:00,
2013-05-17 23:03:00,54.0,43.0,30.28,North,355,0.0,0.0,66,0.00,,,0.00,,2013-05-18 03:03:00,
2013-05-17 23:12:00,54.0,43.0,30.28,North,355,0.0,0.0,66,0.00,,,0.00,,2013-05-18 03:12:00,
2013-05-17 23:23:00,54.0,43.0,30.28,North,355,0.0,0.0,66,0.00,,,0.00,,2013-05-18 03:23:00,
2013-05-17 23:33:00,54.0,43.0,30.28,North,355,0.0,0.0,66,0.00,,,0.00,,2013-05-18 03:33:00,
2013-05-17 23:43:00,54.0,43.0,30.28,North,355,0.0,0.0,66,0.00,,,0.00,,2013-05-18 03:43:00,
2013-05-17 23:53:00,53.0,43.0,30.28,North,355,0.0,0.0,68,0.00,,,0.00,,2013-05-18 03:53:00,